Regional Weather Roundup
Issued by NWS

Home | Current Version | Previous Version | Graphics & Text | Print | Product List | Glossary On
Versions: 1 2 3 4 5 6 7 8 9 10 11 12 13 14 15 16 17 18 19 20 21 22 23 24 25 26 27 28 29 30 31 32 33 34 35 36 37 38 39 40 41 42 43 44 45 46 47 48 49 50
000
ASUS45 KTFX 190719
RWRMT
MONTANA HOURLY WEATHER ROUNDUP
NATIONAL WEATHER SERVICE GREAT FALLS MT
119 AM MDT FRI SEP 19 2014

NOTE: "FAIR" INDICATES FEW OR NO CLOUDS BELOW 12000 FEET WITH NO
SIGNIFICANT WEATHER AND/OR OBSTRUCTIONS TO VISIBILITY.

* THESE STATIONS ARE NOT UNDER NWS QUALITY CONTROL. THEY DO NOT
   REPORT WEATHER SUCH AS PRECIPITATION OR FOG.

MTZ001>007-043-190800-
WEST OF THE DIVIDE
CITY           SKY/WX    TMP DP  RH WIND       PRES   REMARKS
KALISPELL      CLOUDY    64  46  52 W6        29.81R
MISSOULA       CLOUDY    59  45  60 W5        29.88R
BUTTE          MOCLDY    48  43  83 SE6       29.97R
MULLAN PASS    CLOUDY    48  45  89 VRB7G18   29.97R
* ESSEX        N/A       61  45  56 N4         N/A
* LINCOLN      N/A       62  40  45 S5G12      N/A
* LOOKOUT PASS N/A       56  47  72 SE7G13     N/A
* POLSON       N/A       62  44  52 SW3G11     N/A
* RONAN APT    MOCLDY    64  46  52 N/A        N/A
* SEELEY LAKE  N/A       61  41  48 NW2G7      N/A
* THOMP F APT  MOCLDY    52  48  86 N4G9       N/A
$$

MTZ008-052>055-190800-
SOUTHWEST MONTANA
CITY           SKY/WX    TMP DP  RH WIND       PRES   REMARKS
BOZEMAN        PTCLDY    52  48  86 S7        29.89S
DILLON         CLEAR     52  39  61 SW8       29.94R
W YELLOWSTONE  MOCLDY    46  46 100 W3        30.07R
* THREE FORKS  PTCLDY    52  28  40 N/A        N/A
* BOULDER HILL N/A       52  42  69 S3         N/A
* MONIDA PASS  N/A       48  48 100 E5         N/A
* RAYNOLDS PAS N/A       47  31  54 N/A        N/A
* WHITEHALL    N/A       53  46  77 N5         N/A
* WISE RIVER   N/A       48  37  66 W6         N/A
$$

MTZ009>010-012-014-046-048-049-054-190800-
EAST SLOPES AND CENTRAL MONTANA
CITY           SKY/WX    TMP DP  RH WIND       PRES   REMARKS
CUT BANK       CLOUDY    64  43  47 W15       29.74S
GREAT FALLS    MOCLDY    57  45  64 SW9       29.77S
HELENA         PTCLDY    59  45  60 CALM      29.86R
MALMSTROM AFB  PTCLDY    57  45  64 SW12      29.78F
* CONRAD       MOCLDY    54  52  93 SW8        N/A
* EAST GLACIER N/A       59  43  56 W34G42     N/A
* MONARCH      N/A       59  44  58 SW13       N/A
* PENDROY      N/A       59  43  56 W11        N/A
* ROGERS PASS  N/A       59  38  46 SE11G16    N/A
* SAINT MARY   N/A       59  40  50 SW8G21     N/A
* SWEET GRASS  N/A       60  42  52 W9         N/A
* WHITE SULPH  N/A       52  46  80 NE3        N/A
$$

MTZ011-013-016-021-035-040-045-047-050-051-190800-
NORTH CENTRAL MONTANA
CITY           SKY/WX    TMP DP  RH WIND       PRES   REMARKS
HAVRE          MOCLDY    61  45  56 SW6G18    29.68R
LEWISTOWN      MOCLDY    63  48  58 NW9       29.81R
* CHINOOK      PTCLDY    59  52  78 CALM      29.67S
* CHESTER      N/A       56  41  57 N1         N/A
* DENTON       N/A       58  49  72 W8         N/A
* GEYSER       N/A       56  47  72 VRB2       N/A
* JUDITH GAP   N/A       56  47  72 W2G13      N/A
* LOMA         N/A       63  46  54 S3         N/A
$$

MTZ017>020-022>027-061-062-190800-
NORTHEAST MONTANA
CITY           SKY/WX    TMP DP  RH WIND       PRES   REMARKS
GLASGOW        CLOUDY    61  52  72 NW5       29.62R
GLENDIVE       CLOUDY    66  54  65 SW12      29.66F
JORDAN         CLOUDY    61  55  81 W3        29.67F
SIDNEY         CLOUDY    61  55  81 SW6       29.63F
WOLF POINT     CLOUDY    55  54  96 W3        29.60F
* BEAVER HILL  N/A       67  52  59 SW13       N/A
* CIRCLE       N/A       62  55  78 N/A        N/A
* LINDSAY DVD  N/A       66  54  65 SW12G18    N/A
* NAVAJO       N/A       65  51  61 W10        N/A
* SACO         N/A       61  51  70 W9         N/A
$$

MTZ028>042-056>058-190800-
SOUTHCENTRAL AND SOUTHEAST MONTANA
CITY           SKY/WX    TMP DP  RH WIND       PRES   REMARKS
BAKER          CLOUDY    63  55  75 W8        29.72F
BILLINGS       CLOUDY    64  54  70 W15       29.83R
LIVINGSTON     PTCLDY    57  48  72 SW14      29.89R
MILES CITY     CLOUDY    64  54  70 W7        29.71F
* LAUREL APT   CLOUDY    61  52  72 W5         N/A
* ROUNDUP APT  CLOUDY    64  48  56 W20G26     N/A
* ALZADA       N/A       61  54  78 NW1        N/A
* HYSHAM       N/A       64  53  68 W6         N/A
* LAME DEER    N/A       63  52  68 SW17G23    N/A
* REED POINT   N/A       57  55  93 S2G9       N/A
* ROSCOE HILL  N/A       61  37  41 S6G12      N/A
$$

REGIONAL REPORTS...DAKOTAS
CITY           SKY/WX    TMP DP  RH WIND       PRES   REMARKS
WILLISTON      CLOUDY    63  54  73 SW7       29.59F
DICKINSON      LGT RAIN  70  54  57 W12       29.65F
BEACH          N/A       66  54  65 SW13G18   29.67F
CROSBY         CLEAR     63  55  75 SW7       29.56F
TIOGA          CLEAR     66  50  56 SW10      29.62F
WATFORD CITY   CLEAR     66  54  65 SW8       29.59F
BISMARCK       CLOUDY    66  61  84 S8        29.65F
GRAND FORKS    CLOUDY    66  57  73 S22G31    29.63F
FARGO          CLOUDY    66  55  68 S15G24    29.75F
BUFFALO SD     CLOUDY    70  52  53 NW12      29.66F
RAPID CITY     CLOUDY    72  54  53 N21G29    29.76S
$$

REGIONAL REPORTS...WYOMING/IDAHO/WASHINGTON
CITY           SKY/WX    TMP DP  RH WIND       PRES   REMARKS
GILLETTE       CLOUDY    63  52  68 CALM      29.88R
SHERIDAN       CLOUDY    61  55  81 SW8       29.85F
CODY           CLOUDY   N/A N/A N/A N/A        N/A
YELLOWSTONE LA CLOUDY    46  43  89 CALM      30.16R
SALMON         CLEAR     48  43  83 CALM      29.92R
MULLAN PASS    CLOUDY    48  45  89 VRB7G18   29.97S
SAND POINT     CLOUDY    55  55 100 CALM      29.83R
SPOKANE        MOCLDY    61  46  58 SW14      29.86R
$$

REGIONAL REPORTS...ALBERTA
CITY           SKY/WX    TMP DP  RH WIND       PRES   REMARKS
CALGARY        PTCLDY    55  48  77 VRB2      29.67R
LETHBRIDGE     PTCLDY    63  46  54 W21G28    29.67R
MEDICINE HAT   CLOUDY    61  48  62 W3        29.62R
EDMONTON       LGT RAIN  54  54 100 W9        29.63S
WATERTON GATE  N/A       59  46  62 SW12G22    N/A
CARDSTON       N/A       61  48  62 W6         N/A
MILK RIVER     N/A       54  45  72 NW5        N/A
$$

REGIONAL REPORTS...SASKATCHEWAN
CITY           SKY/WX    TMP DP  RH WIND       PRES   REMARKS
SWIFT CURRENT  CLOUDY    64  46  52 W15       29.56F
REGINA         MOCLDY    57  54  90 W7        29.52F
VAL MARIE      N/A       59  50  72 W8         N/A
ASSINIBOIA     N/A       63  48  58 W12        N/A
CORONACH       N/A       61  52  72 E2         N/A

$$



USA.gov is the U.S. government's official web portal to all federal, state and local government web resources and services.